Theta_e
326 327 328 329 329 329 329 330 331 331 331 332 331 331 330 330 330 331 332 333 333 333 332 332 332 332 331 330 329 329 329 329 328 328 328 328 327 326 326 326 326 328
325 326 327 328 328 327 327 328 330 330 330 330 330 330 330 330 330 331 331 332 332 332 332 333 332 332 332 331 330 330 329 329 328 327 327 328 328 328 329 328 327 326
325 327 328 328 328 327 326 327 328 329 329 329 330 329 329 330 330 330 331 331 332 332 332 332 332 332 332 331 331 331 330 329 328 327 327 327 328 329 330 331 330 328
325 327 328 328 327 326 326 326 327 327 328 328 328 328 328 329 329 330 330 330 331 331 331 331 331 331 331 331 331 330 330 330 329 329 329 328 328 328 328 329 330 331
323 325 326 326 326 325 324 324 325 325 325 326 326 327 327 328 328 329 329 329 329 329 330 330 330 331 331 331 331 330 330 330 330 330 330 330 329 328 328 327 328 330
322 324 324 324 324 324 324 324 324 325 325 325 326 326 327 327 327 328 328 329 329 329 330 330 330 331 331 331 331 331 330 330 330 330 330 330 330 330 329 328 327 328
324 324 324 323 323 324 324 324 325 325 325 325 325 325 325 326 326 327 328 329 329 330 330 330 331 331 331 331 331 331 331 331 331 330 330 330 330 329 329 328 328 328
323 322 321 321 322 324 325 325 325 325 324 324 324 324 324 324 324 326 328 329 329 330 330 330 330 330 330 330 331 331 331 331 331 331 331 331 330 329 328 328 328 328
321 320 319 320 322 324 325 324 324 325 324 323 323 322 323 323 323 324 325 327 328 328 329 329 329 329 330 330 330 330 330 330 330 330 331 331 331 330 329 329 329 328
321 320 318 319 321 322 322 322 323 323 323 323 322 321 321 321 321 322 322 324 325 326 327 328 328 329 329 330 330 330 330 329 329 329 330 331 331 331 330 330 330 330
321 320 319 319 320 319 320 320 320 321 321 321 321 321 321 321 321 322 322 323 323 324 325 326 328 328 329 329 330 329 329 329 329 329 329 330 330 330 330 331 330 330
321 320 319 319 319 318 319 318 318 318 318 319 319 320 321 321 322 322 322 322 323 323 323 324 325 326 327 328 329 329 329 329 329 329 329 330 330 330 330 330 330 330
320 319 319 319 318 318 318 318 317 317 317 318 318 320 321 322 322 322 322 322 322 322 322 322 322 322 323 324 325 326 326 327 328 329 329 330 330 331 330 330 330 330
319 319 319 318 318 318 318 317 317 317 318 319 319 320 321 322 322 321 321 321 321 321 320 320 319 319 320 321 321 322 322 323 324 325 326 328 329 330 330 330 330 331
318 318 318 318 318 317 317 317 317 318 319 320 320 320 320 320 319 319 319 319 319 319 319 318 317 317 318 319 320 320 320 319 319 320 321 322 323 324 325 326 328 329
318 318 318 317 317 317 316 316 317 318 318 318 319 318 318 318 317 317 316 316 316 316 316 316 316 316 317 318 318 318 319 318 318 318 318 318 319 319 320 320 322 324
318 318 317 317 317 316 317 317 317 317 318 318 318 317 316 316 316 315 315 314 314 313 313 314 314 315 316 317 317 317 318 318 318 318 318 318 318 318 318 318 318 319
318 317 317 317 316 316 316 317 317 317 317 317 316 315 315 314 314 314 313 313 312 312 312 313 314 315 315 316 316 317 317 317 317 317 317 318 318 317 317 317 317 318
317 317 316 316 316 316 316 316 316 316 316 316 315 314 314 313 313 313 312 312 312 311 311 313 314 314 314 315 315 315 316 317 317 317 317 317 317 316 316 316 317 318
317 317 316 316 316 316 316 316 315 315 315 314 314 313 313 313 312 312 312 311 311 311 312 313 314 313 312 313 314 314 315 316 317 318 319 318 318 318 317 318 319 319
317 316 315 315 315 315 315 315 315 315 314 314 313 313 313 312 312 311 311 310 310 310 312 313 314 312 311 312 313 312 313 314 315 317 318 319 320 321 321 321 322 323
316 315 315 315 315 315 315 315 314 314 313 313 312 312 312 312 311 311 310 309 309 310 311 313 314 313 311 311 311 311 311 312 313 315 317 318 320 321 321 322 323 324
315 315 315 314 314 314 314 314 314 313 313 312 312 312 312 311 311 310 309 309 310 312 312 313 313 312 310 310 310 309 309 310 311 313 315 318 319 320 320 321 321 322
314 314 314 314 314 313 313 313 313 313 313 313 312 312 312 311 310 310 309 309 310 312 313 313 312 310 309 309 309 309 309 309 309 311 313 316 318 319 319 320 320 320
314 314 314 313 313 313 313 313 313 313 313 312 312 312 312 311 310 310 309 309 309 310 311 311 311 309 308 308 308 308 308 308 308 309 311 313 315 317 319 320 320 321
314 314 313 313 313 312 312 313 313 313 313 312 312 312 311 311 310 309 309 309 309 310 310 311 311 309 307 307 308 308 308 308 308 309 310 310 312 315 318 319 320 321
Wind_Speed
16 16 17 17 19 19 19 19 20 20 20 20 20 19 19 18 17 17 17 18 20 21 22 23 23 24 25 25 25 24 23 21 20 19 20 22 22 22 23 23 21 20
15 15 15 17 18 18 18 18 19 20 21 21 21 20 19 19 19 18 18 18 19 19 21 21 20 21 23 24 26 26 26 25 23 22 21 22 23 24 24 24 23 22
16 15 15 16 18 17 17 16 17 18 19 20 20 20 19 20 20 20 20 19 19 18 20 20 18 18 20 22 24 26 27 27 26 25 24 23 23 24 25 25 24 23
18 18 18 18 18 17 16 16 16 17 18 18 18 18 19 19 20 21 21 21 20 19 19 20 19 18 18 19 21 24 26 27 27 26 27 26 25 25 25 25 26 26
19 19 19 19 18 17 16 15 16 17 17 17 17 17 18 18 19 20 20 21 21 20 20 20 20 19 19 19 20 22 23 25 26 26 28 28 27 28 27 26 27 28
18 19 18 18 17 17 16 15 15 15 16 15 15 15 16 17 18 18 19 20 20 20 20 19 19 19 20 20 20 21 22 22 23 25 27 28 28 29 29 29 29 28
19 19 18 17 17 17 16 15 15 15 15 15 15 15 15 15 16 17 18 18 19 19 19 18 18 18 19 19 20 20 20 20 21 22 25 27 28 29 30 30 30 30
17 16 15 15 16 16 16 15 15 15 15 15 15 15 15 15 15 15 16 17 17 18 19 19 19 19 19 19 19 20 20 20 20 21 22 24 26 28 29 29 30 31
13 12 12 13 14 15 15 15 15 14 14 15 16 16 16 16 16 16 16 16 17 18 19 20 20 20 20 21 21 21 21 22 22 21 22 22 24 26 27 28 29 31
12 11 11 11 12 13 14 14 15 15 15 15 15 15 16 17 17 17 17 17 17 18 18 19 20 21 22 23 23 23 23 23 23 23 23 23 23 24 25 26 28 30
14 12 11 11 12 12 13 14 14 15 16 16 16 16 16 17 17 17 17 17 17 17 18 19 19 21 22 23 24 24 24 24 24 24 24 25 25 24 24 25 27 28
17 15 13 13 14 13 13 14 15 17 17 18 18 17 16 17 17 18 18 17 17 18 18 19 20 21 22 24 25 25 26 26 26 25 25 24 25 25 25 25 26 27
19 17 16 15 14 13 14 15 16 17 18 19 19 18 16 17 17 17 18 18 18 18 19 20 21 22 23 24 25 26 27 27 27 27 26 25 24 24 24 25 25 26
20 18 17 16 15 15 16 16 16 17 17 17 17 17 16 16 16 16 16 17 18 19 20 20 21 22 22 23 25 26 27 27 26 26 27 27 26 25 25 25 25 25
21 19 18 18 18 18 17 16 15 14 14 15 15 15 15 16 15 15 15 16 18 19 21 21 22 22 22 22 23 24 25 25 25 25 26 28 28 28 28 27 26 26
23 22 21 20 19 18 16 14 13 12 13 14 14 13 14 15 15 16 17 18 19 21 22 23 22 21 21 21 22 23 24 25 25 25 26 28 29 30 30 29 29 29
25 23 21 20 18 17 15 14 13 13 14 14 14 13 13 14 16 18 20 21 22 23 24 24 23 21 20 20 20 21 22 23 25 26 27 29 30 32 32 32 31 31
25 22 20 19 18 16 14 14 13 14 14 14 13 13 14 15 17 20 23 24 24 24 24 22 21 20 20 20 19 19 20 21 22 25 27 29 31 33 34 33 32 31
23 21 20 19 18 15 14 14 14 15 15 15 15 16 17 18 20 22 24 25 25 24 22 19 18 18 18 17 16 16 16 17 18 21 23 26 29 32 33 33 32 32
23 21 20 19 17 16 15 15 15 16 16 16 17 18 19 20 22 23 24 24 23 22 20 18 16 16 15 14 14 13 13 14 15 17 19 21 24 28 30 32 31 32
23 22 21 20 18 17 16 16 16 17 17 17 17 18 19 21 22 23 24 24 22 20 19 18 17 17 15 13 13 12 11 12 14 15 17 18 20 23 25 27 28 29
23 23 22 21 20 18 18 18 18 18 18 18 18 19 20 21 21 22 24 24 21 19 19 18 17 18 17 14 13 12 11 12 13 14 16 16 17 19 22 24 25 26
24 24 24 23 21 19 19 19 20 20 20 20 19 20 20 21 20 21 23 23 21 19 18 17 17 18 18 15 13 12 11 11 12 13 14 15 16 17 19 21 22 22
24 24 24 23 21 19 19 19 20 21 21 21 21 21 21 21 21 21 22 23 22 20 18 17 16 18 18 16 14 13 12 11 11 12 12 13 14 16 18 19 18 18
23 24 24 21 19 18 18 19 20 21 21 21 21 21 21 21 22 22 23 23 23 22 20 17 15 17 18 17 14 13 12 11 10 11 10 11 12 14 16 18 18 17
22 23 22 19 18 17 17 19 20 21 21 20 20 20 20 21 22 22 22 23 23 21 20 18 16 16 18 18 16 14 12 11 9 9 8 9 10 12 14 15 16 18
Wind_Direction
235 238 241 244 247 250 249 246 246 248 250 252 254 255 255 255 255 253 248 246 246 246 245 247 249 251 252 252 252 251 250 250 250 250 251 251 248 246 244 243 243 241
234 236 240 245 250 254 253 248 245 245 248 251 254 255 257 258 259 258 254 249 248 248 246 244 247 252 252 251 252 253 252 252 251 251 253 253 250 247 246 245 244 244
230 232 238 245 252 254 253 250 247 247 248 250 253 255 255 257 258 259 258 255 252 251 249 246 244 248 253 253 252 253 254 254 253 254 255 255 253 250 250 250 248 246
231 234 240 247 253 253 252 251 251 251 251 251 253 255 255 256 258 259 260 259 257 255 253 251 247 245 250 256 256 254 254 255 254 255 254 254 252 251 252 253 252 248
236 240 245 250 252 252 253 253 252 253 253 252 252 252 253 254 256 260 262 263 263 261 256 253 252 249 247 250 253 254 254 255 254 253 254 254 253 252 253 255 254 251
241 246 249 252 252 252 253 251 250 251 253 255 254 253 253 252 253 256 260 262 263 262 258 256 253 251 248 246 247 249 251 252 252 252 253 254 255 255 256 255 253 250
247 252 254 253 251 250 251 249 248 247 248 251 253 254 255 256 255 254 257 260 260 258 258 256 253 251 250 247 246 247 248 249 249 250 251 254 254 255 255 254 252 249
247 251 252 251 246 244 246 247 248 248 248 248 249 252 255 257 257 255 255 257 258 257 256 255 255 254 254 252 250 250 250 250 249 248 249 251 252 252 253 253 252 250
234 240 244 245 242 241 244 246 248 249 249 250 251 252 254 256 257 257 258 259 259 260 259 258 258 258 258 259 258 255 254 254 253 252 252 253 253 253 252 252 252 252
219 227 234 236 235 237 241 243 246 248 250 253 254 254 255 258 259 260 261 262 263 264 265 264 262 261 261 262 262 262 260 259 258 257 257 257 256 255 253 252 252 252
213 218 225 231 235 240 246 250 254 256 258 260 259 257 256 257 260 262 263 263 264 265 267 267 266 264 263 263 264 264 264 263 263 262 261 261 260 258 255 252 252 253
211 217 225 237 246 251 257 262 265 267 269 270 267 261 257 256 259 262 264 265 266 267 268 268 268 266 265 265 265 266 266 266 266 267 267 267 266 264 260 256 254 253
211 218 227 239 247 251 256 262 268 271 271 271 268 261 257 258 260 261 263 265 267 269 270 270 271 270 268 266 266 266 267 267 268 268 268 268 269 269 266 264 260 255
213 218 227 236 243 249 256 261 266 267 264 263 261 258 256 257 259 262 265 267 270 272 275 277 278 276 272 268 266 266 267 267 267 267 267 267 268 269 270 269 266 260
214 219 227 236 243 250 256 260 260 257 255 254 252 253 255 258 262 268 272 276 278 279 281 285 285 282 277 271 267 265 265 266 266 267 268 269 269 269 269 268 268 265
219 224 231 237 243 249 254 256 252 246 246 248 248 251 257 263 272 281 286 289 290 288 288 289 290 285 277 270 265 263 262 264 265 267 269 271 272 272 271 270 268 266
221 225 232 237 242 247 249 247 243 243 245 248 250 255 261 270 281 289 293 295 294 294 291 288 287 283 273 265 263 263 263 264 265 267 269 271 273 274 274 273 270 267
220 225 231 235 239 244 244 239 237 242 247 248 250 256 265 276 285 289 293 294 295 295 291 284 280 275 268 263 262 265 267 267 267 267 268 269 271 273 273 273 270 267
223 231 232 232 235 239 237 233 233 237 242 245 251 262 271 281 287 289 291 291 291 291 288 281 273 266 262 262 264 267 271 273 272 270 268 267 267 268 269 269 268 265
228 231 228 227 228 227 226 228 232 235 240 246 255 265 274 282 287 289 290 289 288 286 284 280 273 264 258 260 265 269 274 278 279 276 273 269 265 263 264 265 266 264
226 223 222 222 221 221 226 232 234 237 242 249 256 266 276 282 285 288 290 288 284 282 281 280 273 261 253 254 261 267 275 283 286 285 282 277 269 264 264 266 269 268
219 217 218 219 221 225 231 234 236 241 246 252 260 269 277 281 283 288 292 289 282 280 281 280 269 256 248 249 257 266 276 285 291 294 293 291 285 275 266 265 268 270
216 216 217 219 226 232 236 238 240 244 249 255 263 270 276 281 285 290 293 289 281 278 283 284 271 252 244 247 255 264 274 284 291 297 299 301 302 295 281 268 265 266
217 218 220 224 232 237 241 244 244 247 252 259 266 273 278 283 287 290 290 285 279 278 283 288 273 252 243 245 252 261 271 281 289 297 303 307 310 309 300 286 274 269
218 220 224 229 237 241 245 248 249 251 257 263 269 275 279 283 286 288 285 281 278 278 282 286 276 260 250 246 247 256 264 273 285 295 305 314 316 313 308 299 291 285
217 221 226 232 240 245 249 250 251 253 259 265 269 273 277 282 285 285 282 279 277 277 281 284 281 274 265 253 246 249 256 264 278 290 298 311 316 314 311 302 293 288